QPF
0.00 0.00 0.00 0.01 0.04 0.09 0.07 0.01 0.00 0.00 0.00 0.00 0.00 0.00 0.00 0.01 0.04 0.07 0.01 0.00 0.00 0.00 0.00 0.01 0.01 0.01 0.01 0.02 0.03 0.04 0.03 0.03 0.03 0.03 0.03 0.04 0.05 0.05 0.05 0.05 0.05 0.06 0.04 0.03 0.04 0.04 0.05 0.04 0.03
0.00 0.00 0.01 0.04 0.07 0.10 0.04 0.00 0.00 0.00 0.00 0.00 0.00 0.00 0.00 0.00 0.00 0.00 0.00 0.00 0.00 0.00 0.00 0.00 0.00 0.01 0.01 0.02 0.02 0.03 0.02 0.02 0.03 0.03 0.03 0.03 0.04 0.05 0.04 0.03 0.04 0.04 0.04 0.04 0.04 0.05 0.05 0.03 0.04
0.00 0.00 0.00 0.02 0.04 0.05 0.01 0.00 0.00 0.00 0.00 0.00 0.00 0.00 0.00 0.00 0.00 0.00 0.00 0.00 0.00 0.00 0.00 0.00 0.00 0.00 0.01 0.01 0.01 0.02 0.02 0.03 0.04 0.04 0.03 0.03 0.03 0.03 0.02 0.03 0.03 0.03 0.03 0.04 0.04 0.04 0.03 0.03 0.03
0.00 0.00 0.00 0.00 0.01 0.01 0.00 0.00 0.00 0.00 0.00 0.00 0.01 0.01 0.00 0.00 0.00 0.00 0.00 0.00 0.00 0.00 0.00 0.00 0.00 0.00 0.00 0.01 0.01 0.02 0.02 0.02 0.03 0.03 0.02 0.03 0.03 0.03 0.02 0.03 0.03 0.04 0.04 0.04 0.04 0.02 0.02 0.02 0.02
0.00 0.00 0.00 0.00 0.00 0.00 0.00 0.00 0.00 0.00 0.00 0.00 0.01 0.01 0.00 0.00 0.00 0.00 0.00 0.00 0.00 0.00 0.00 0.00 0.00 0.00 0.00 0.01 0.01 0.02 0.01 0.02 0.02 0.02 0.02 0.03 0.03 0.03 0.02 0.02 0.02 0.03 0.03 0.03 0.02 0.01 0.01 0.02 0.01
0.00 0.00 0.00 0.00 0.00 0.00 0.00 0.00 0.00 0.00 0.00 0.00 0.00 0.01 0.00 0.00 0.00 0.00 0.00 0.00 0.00 0.00 0.00 0.00 0.00 0.00 0.01 0.01 0.01 0.02 0.02 0.01 0.02 0.03 0.03 0.03 0.03 0.02 0.02 0.02 0.02 0.02 0.03 0.03 0.02 0.01 0.02 0.02 0.01
0.00 0.00 0.00 0.00 0.00 0.00 0.00 0.00 0.00 0.00 0.01 0.01 0.01 0.02 0.01 0.01 0.01 0.00 0.00 0.00 0.00 0.00 0.00 0.00 0.00 0.00 0.01 0.01 0.01 0.02 0.02 0.02 0.02 0.03 0.03 0.02 0.01 0.01 0.01 0.01 0.02 0.02 0.01 0.02 0.02 0.01 0.01 0.01 0.01
0.00 0.00 0.00 0.00 0.00 0.00 0.00 0.00 0.00 0.00 0.01 0.00 0.01 0.01 0.01 0.01 0.01 0.00 0.00 0.00 0.01 0.01 0.00 0.00 0.00 0.01 0.01 0.01 0.01 0.02 0.03 0.02 0.02 0.02 0.02 0.01 0.01 0.01 0.02 0.01 0.01 0.01 0.01 0.01 0.01 0.01 0.01 0.01 0.01
0.00 0.00 0.00 0.00 0.00 0.00 0.00 0.00 0.00 0.00 0.00 0.00 0.00 0.00 0.00 0.01 0.01 0.00 0.00 0.00 0.02 0.03 0.02 0.01 0.00 0.01 0.02 0.01 0.00 0.02 0.02 0.01 0.02 0.02 0.01 0.05 0.08 0.05 0.05 0.03 0.01 0.01 0.01 0.01 0.01 0.01 0.01 0.01 0.01
0.00 0.00 0.00 0.00 0.00 0.00 0.00 0.00 0.00 0.00 0.01 0.01 0.01 0.00 0.00 0.00 0.00 0.00 0.00 0.00 0.01 0.02 0.02 0.02 0.01 0.01 0.02 0.02 0.02 0.04 0.04 0.02 0.07 0.08 0.07 0.16 0.16 0.13 0.06 0.02 0.01 0.01 0.01 0.01 0.01 0.01 0.01 0.03 0.02
0.00 0.00 0.00 0.00 0.00 0.00 0.00 0.00 0.00 0.00 0.01 0.01 0.00 0.01 0.02 0.00 0.00 0.00 0.00 0.01 0.01 0.01 0.02 0.02 0.02 0.02 0.02 0.05 0.04 0.05 0.07 0.08 0.12 0.11 0.11 0.13 0.10 0.08 0.05 0.03 0.03 0.03 0.03 0.04 0.03 0.03 0.07 0.06 0.03
0.00 0.00 0.00 0.00 0.00 0.00 0.00 0.00 0.00 0.00 0.02 0.03 0.01 0.00 0.01 0.00 0.00 0.00 0.00 0.01 0.01 0.01 0.01 0.01 0.01 0.03 0.04 0.03 0.05 0.05 0.04 0.05 0.08 0.08 0.07 0.09 0.11 0.10 0.08 0.08 0.08 0.08 0.08 0.10 0.07 0.07 0.10 0.06 0.02
0.00 0.00 0.00 0.00 0.00 0.00 0.00 0.00 0.00 0.00 0.00 0.01 0.00 0.00 0.00 0.00 0.00 0.00 0.01 0.02 0.02 0.01 0.02 0.03 0.02 0.02 0.04 0.05 0.05 0.04 0.04 0.04 0.05 0.06 0.06 0.06 0.06 0.08 0.08 0.08 0.08 0.07 0.05 0.04 0.05 0.05 0.04 0.03 0.02
0.00 0.00 0.00 0.00 0.00 0.00 0.00 0.00 0.00 0.00 0.00 0.00 0.00 0.00 0.00 0.00 0.00 0.00 0.00 0.01 0.02 0.02 0.02 0.01 0.02 0.02 0.04 0.04 0.04 0.04 0.03 0.04 0.03 0.03 0.03 0.03 0.04 0.06 0.06 0.05 0.05 0.05 0.04 0.04 0.04 0.02 0.03 0.02 0.03
0.00 0.00 0.00 0.00 0.00 0.00 0.00 0.00 0.00 0.00 0.00 0.00 0.00 0.00 0.00 0.00 0.00 0.00 0.00 0.01 0.02 0.03 0.03 0.02 0.02 0.03 0.03 0.04 0.03 0.03 0.02 0.01 0.03 0.03 0.03 0.03 0.03 0.04 0.04 0.05 0.04 0.04 0.04 0.03 0.04 0.03 0.02 0.03 0.04
0.00 0.00 0.00 0.00 0.00 0.00 0.00 0.00 0.00 0.00 0.00 0.00 0.00 0.00 0.00 0.00 0.00 0.00 0.00 0.02 0.02 0.03 0.04 0.04 0.02 0.03 0.02 0.03 0.04 0.03 0.02 0.02 0.02 0.03 0.03 0.03 0.03 0.03 0.04 0.04 0.03 0.03 0.02 0.03 0.04 0.04 0.05 0.07 0.08
0.00 0.00 0.00 0.00 0.00 0.00 0.00 0.00 0.00 0.00 0.00 0.00 0.00 0.00 0.00 0.00 0.00 0.00 0.00 0.01 0.01 0.03 0.05 0.05 0.05 0.05 0.03 0.03 0.04 0.05 0.05 0.04 0.03 0.04 0.05 0.04 0.03 0.02 0.02 0.05 0.04 0.03 0.03 0.03 0.03 0.06 0.08 0.10 0.08
0.00 0.00 0.00 0.00 0.00 0.00 0.00 0.00 0.00 0.00 0.00 0.00 0.00 0.00 0.00 0.00 0.00 0.00 0.00 0.01 0.01 0.02 0.04 0.07 0.09 0.09 0.07 0.05 0.06 0.07 0.06 0.05 0.04 0.04 0.05 0.04 0.04 0.03 0.02 0.04 0.04 0.03 0.04 0.06 0.06 0.09 0.07 0.08 0.07
0.00 0.00 0.00 0.00 0.00 0.00 0.00 0.00 0.00 0.00 0.00 0.00 0.00 0.00 0.00 0.00 0.00 0.00 0.00 0.00 0.01 0.01 0.02 0.05 0.07 0.07 0.07 0.05 0.05 0.06 0.06 0.05 0.05 0.04 0.04 0.04 0.03 0.03 0.02 0.04 0.06 0.05 0.06 0.07 0.06 0.08 0.08 0.08 0.08
0.00 0.00 0.00 0.00 0.01 0.00 0.00 0.00 0.00 0.00 0.00 0.00 0.00 0.00 0.00 0.00 0.00 0.00 0.00 0.00 0.00 0.01 0.01 0.02 0.04 0.04 0.05 0.05 0.06 0.07 0.07 0.06 0.06 0.06 0.07 0.04 0.04 0.03 0.02 0.05 0.05 0.05 0.08 0.06 0.06 0.08 0.10 0.09 0.08
0.00 0.00 0.00 0.00 0.01 0.00 0.00 0.00 0.00 0.00 0.00 0.00 0.00 0.00 0.00 0.00 0.00 0.00 0.00 0.00 0.00 0.00 0.00 0.01 0.03 0.05 0.05 0.06 0.07 0.07 0.09 0.08 0.08 0.07 0.06 0.04 0.04 0.03 0.02 0.03 0.04 0.05 0.05 0.06 0.07 0.07 0.09 0.12 0.11
0.00 0.00 0.00 0.00 0.00 0.00 0.00 0.00 0.01 0.01 0.02 0.00 0.00 0.00 0.00 0.00 0.00 0.00 0.00 0.00 0.00 0.00 0.00 0.01 0.03 0.04 0.04 0.05 0.05 0.04 0.04 0.06 0.06 0.06 0.06 0.04 0.04 0.04 0.03 0.03 0.03 0.03 0.03 0.06 0.05 0.06 0.09 0.11 0.10
0.00 0.00 0.00 0.00 0.00 0.00 0.00 0.00 0.02 0.06 0.06 0.02 0.00 0.00 0.01 0.01 0.01 0.00 0.00 0.00 0.00 0.01 0.00 0.01 0.02 0.03 0.03 0.03 0.04 0.05 0.07 0.08 0.08 0.08 0.08 0.07 0.06 0.04 0.03 0.04 0.04 0.03 0.04 0.05 0.05 0.07 0.07 0.08 0.06
0.00 0.00 0.00 0.00 0.00 0.00 0.00 0.00 0.01 0.05 0.07 0.04 0.01 0.00 0.00 0.00 0.00 0.00 0.00 0.00 0.01 0.01 0.01 0.01 0.02 0.03 0.04 0.04 0.05 0.06 0.08 0.09 0.10 0.09 0.08 0.07 0.06 0.05 0.04 0.04 0.05 0.04 0.04 0.04 0.04 0.06 0.05 0.05 0.06
0.00 0.00 0.00 0.01 0.01 0.00 0.00 0.00 0.00 0.01 0.01 0.02 0.01 0.00 0.00 0.00 0.00 0.00 0.00 0.00 0.01 0.01 0.01 0.02 0.03 0.03 0.03 0.04 0.04 0.04 0.07 0.11 0.10 0.07 0.08 0.08 0.05 0.04 0.04 0.05 0.05 0.04 0.03 0.03 0.04 0.04 0.05 0.05 0.06
0.00 0.00 0.00 0.01 0.01 0.01 0.00 0.00 0.00 0.00 0.00 0.00 0.00 0.00 0.00 0.00 0.00 0.00 0.01 0.01 0.01 0.01 0.01 0.01 0.02 0.03 0.04 0.04 0.05 0.05 0.07 0.06 0.06 0.06 0.06 0.07 0.04 0.03 0.05 0.05 0.04 0.03 0.04 0.04 0.06 0.04 0.04 0.05 0.05
0.00 0.00 0.00 0.00 0.02 0.02 0.02 0.00 0.00 0.00 0.00 0.00 0.00 0.00 0.00 0.00 0.00 0.00 0.01 0.00 0.01 0.01 0.01 0.02 0.02 0.03 0.04 0.05 0.06 0.08 0.08 0.07 0.07 0.07 0.06 0.08 0.06 0.04 0.05 0.05 0.04 0.03 0.04 0.05 0.06 0.05 0.04 0.05 0.04
0.00 0.00 0.00 0.00 0.01 0.02 0.02 0.01 0.01 0.01 0.00 0.00 0.00 0.00 0.00 0.00 0.00 0.01 0.01 0.00 0.00 0.01 0.01 0.02 0.02 0.03 0.03 0.04 0.05 0.07 0.08 0.07 0.08 0.07 0.06 0.08 0.07 0.06 0.06 0.07 0.07 0.06 0.05 0.06 0.07 0.06 0.05 0.05 0.04
0.00 0.00 0.00 0.00 0.00 0.01 0.02 0.02 0.01 0.01 0.00 0.00 0.00 0.00 0.00 0.00 0.00 0.01 0.01 0.01 0.01 0.01 0.02 0.02 0.03 0.04 0.04 0.04 0.04 0.08 0.08 0.08 0.07 0.06 0.06 0.08 0.10 0.09 0.07 0.06 0.07 0.08 0.07 0.07 0.08 0.06 0.06 0.05 0.04
0.00 0.00 0.00 0.00 0.00 0.00 0.01 0.03 0.01 0.01 0.00 0.00 0.00 0.00 0.00 0.00 0.00 0.01 0.01 0.01 0.01 0.02 0.02 0.02 0.03 0.04 0.04 0.04 0.05 0.08 0.08 0.08 0.07 0.06 0.05 0.07 0.08 0.07 0.06 0.07 0.08 0.09 0.09 0.09 0.08 0.07 0.07 0.06 0.06
MSLP
1004.20 1004.81 1005.51 1006.15 1006.61 1006.81 1006.74 1006.45 1006.03 1005.62 1005.32 1005.20 1005.30 1005.58 1005.97 1006.38 1006.75 1007.03 1007.23 1007.38 1007.56 1007.81 1008.18 1008.67 1009.23 1009.82 1010.36 1010.79 1011.08 1011.25 1011.33 1011.38 1011.45 1011.58 1011.78 1012.04 1012.33 1012.60 1012.81 1012.97 1013.07 1013.14 1013.20 1013.29 1013.42 1013.58 1013.76 1013.92 1014.06
1004.51 1005.19 1005.88 1006.45 1006.78 1006.83 1006.61 1006.19 1005.69 1005.24 1004.93 1004.84 1004.96 1005.25 1005.63 1006.04 1006.40 1006.68 1006.90 1007.12 1007.38 1007.73 1008.21 1008.78 1009.42 1010.05 1010.60 1011.02 1011.30 1011.46 1011.55 1011.61 1011.71 1011.88 1012.12 1012.40 1012.68 1012.93 1013.12 1013.24 1013.30 1013.35 1013.40 1013.50 1013.63 1013.81 1013.98 1014.14 1014.26
1004.90 1005.59 1006.21 1006.64 1006.81 1006.68 1006.30 1005.77 1005.22 1004.76 1004.48 1004.44 1004.61 1004.94 1005.35 1005.76 1006.12 1006.41 1006.66 1006.92 1007.26 1007.70 1008.27 1008.93 1009.63 1010.30 1010.86 1011.28 1011.55 1011.71 1011.80 1011.88 1012.01 1012.21 1012.46 1012.75 1013.02 1013.25 1013.40 1013.48 1013.52 1013.56 1013.61 1013.72 1013.88 1014.06 1014.25 1014.40 1014.50
1005.29 1005.92 1006.42 1006.68 1006.65 1006.34 1005.82 1005.21 1004.64 1004.22 1004.02 1004.07 1004.33 1004.72 1005.17 1005.60 1005.96 1006.25 1006.53 1006.83 1007.22 1007.74 1008.39 1009.12 1009.87 1010.56 1011.13 1011.55 1011.82 1011.98 1012.08 1012.18 1012.34 1012.55 1012.82 1013.10 1013.36 1013.56 1013.68 1013.74 1013.76 1013.80 1013.87 1013.99 1014.17 1014.37 1014.55 1014.69 1014.77
1005.60 1006.12 1006.45 1006.51 1006.29 1005.81 1005.20 1004.55 1004.01 1003.68 1003.60 1003.78 1004.14 1004.62 1005.11 1005.56 1005.92 1006.22 1006.50 1006.83 1007.27 1007.84 1008.54 1009.32 1010.11 1010.82 1011.40 1011.82 1012.09 1012.25 1012.37 1012.49 1012.66 1012.89 1013.17 1013.44 1013.68 1013.86 1013.96 1014.00 1014.03 1014.07 1014.16 1014.31 1014.50 1014.71 1014.89 1015.01 1015.06
1005.79 1006.15 1006.29 1006.15 1005.74 1005.15 1004.48 1003.85 1003.39 1003.19 1003.26 1003.58 1004.07 1004.63 1005.17 1005.63 1006.00 1006.29 1006.57 1006.91 1007.37 1007.98 1008.71 1009.51 1010.31 1011.04 1011.62 1012.04 1012.31 1012.49 1012.62 1012.76 1012.95 1013.20 1013.48 1013.75 1013.98 1014.14 1014.23 1014.27 1014.30 1014.36 1014.47 1014.63 1014.83 1015.04 1015.20 1015.29 1015.31
1005.84 1006.01 1005.95 1005.63 1005.09 1004.42 1003.74 1003.18 1002.84 1002.79 1003.03 1003.49 1004.09 1004.73 1005.31 1005.78 1006.14 1006.42 1006.69 1007.03 1007.49 1008.10 1008.84 1009.64 1010.44 1011.16 1011.73 1012.15 1012.44 1012.62 1012.78 1012.95 1013.17 1013.44 1013.72 1014.00 1014.22 1014.38 1014.47 1014.51 1014.56 1014.63 1014.75 1014.92 1015.11 1015.30 1015.44 1015.50 1015.49
1005.76 1005.75 1005.50 1005.03 1004.39 1003.70 1003.06 1002.60 1002.40 1002.51 1002.89 1003.48 1004.18 1004.87 1005.47 1005.95 1006.29 1006.55 1006.80 1007.13 1007.58 1008.18 1008.90 1009.69 1010.46 1011.16 1011.72 1012.14 1012.43 1012.65 1012.83 1013.04 1013.29 1013.58 1013.89 1014.17 1014.40 1014.56 1014.65 1014.70 1014.75 1014.83 1014.96 1015.12 1015.31 1015.47 1015.57 1015.60 1015.56
1005.59 1005.42 1005.02 1004.44 1003.75 1003.07 1002.50 1002.15 1002.09 1002.33 1002.84 1003.52 1004.28 1005.00 1005.61 1006.07 1006.39 1006.63 1006.87 1007.18 1007.61 1008.19 1008.88 1009.63 1010.37 1011.04 1011.59 1012.00 1012.31 1012.55 1012.78 1013.02 1013.31 1013.64 1013.97 1014.27 1014.51 1014.67 1014.77 1014.83 1014.88 1014.96 1015.08 1015.23 1015.39 1015.53 1015.61 1015.61 1015.55
1005.39 1005.09 1004.58 1003.93 1003.23 1002.59 1002.10 1001.86 1001.91 1002.25 1002.84 1003.57 1004.34 1005.06 1005.66 1006.10 1006.42 1006.65 1006.88 1007.18 1007.60 1008.14 1008.79 1009.50 1010.20 1010.83 1011.35 1011.77 1012.09 1012.37 1012.64 1012.93 1013.26 1013.62 1013.98 1014.30 1014.55 1014.73 1014.83 1014.90 1014.95 1015.03 1015.13 1015.27 1015.41 1015.52 1015.57 1015.56 1015.51
1005.21 1004.82 1004.25 1003.57 1002.88 1002.29 1001.88 1001.72 1001.84 1002.24 1002.85 1003.58 1004.33 1005.03 1005.60 1006.04 1006.35 1006.59 1006.83 1007.13 1007.54 1008.06 1008.67 1009.34 1009.99 1010.58 1011.09 1011.50 1011.84 1012.15 1012.46 1012.80 1013.17 1013.57 1013.95 1014.29 1014.55 1014.74 1014.86 1014.93 1014.98 1015.05 1015.14 1015.26 1015.38 1015.48 1015.53 1015.52 1015.48
1005.09 1004.64 1004.04 1003.37 1002.72 1002.18 1001.83 1001.72 1001.87 1002.26 1002.84 1003.53 1004.24 1004.89 1005.44 1005.87 1006.20 1006.47 1006.75 1007.07 1007.48 1007.99 1008.57 1009.19 1009.79 1010.35 1010.84 1011.25 1011.61 1011.95 1012.30 1012.68 1013.08 1013.50 1013.90 1014.26 1014.54 1014.73 1014.86 1014.94 1015.00 1015.07 1015.16 1015.27 1015.38 1015.48 1015.54 1015.55 1015.54
1005.02 1004.55 1003.95 1003.31 1002.71 1002.22 1001.91 1001.82 1001.95 1002.30 1002.81 1003.42 1004.06 1004.66 1005.19 1005.63 1006.00 1006.33 1006.65 1007.02 1007.45 1007.95 1008.51 1009.09 1009.66 1010.18 1010.66 1011.07 1011.45 1011.82 1012.19 1012.59 1013.02 1013.45 1013.86 1014.22 1014.51 1014.72 1014.86 1014.96 1015.03 1015.11 1015.20 1015.32 1015.44 1015.56 1015.64 1015.68 1015.71
1005.00 1004.54 1003.97 1003.38 1002.83 1002.39 1002.10 1002.00 1002.08 1002.35 1002.76 1003.26 1003.81 1004.36 1004.88 1005.36 1005.78 1006.18 1006.58 1007.00 1007.46 1007.97 1008.51 1009.06 1009.60 1010.11 1010.57 1010.99 1011.38 1011.76 1012.15 1012.56 1012.98 1013.41 1013.81 1014.17 1014.47 1014.70 1014.86 1014.98 1015.08 1015.18 1015.30 1015.43 1015.58 1015.72 1015.83 1015.92 1015.98
1005.00 1004.56 1004.05 1003.52 1003.04 1002.64 1002.37 1002.23 1002.24 1002.40 1002.68 1003.07 1003.54 1004.04 1004.56 1005.07 1005.57 1006.04 1006.52 1007.00 1007.50 1008.02 1008.56 1009.09 1009.61 1010.10 1010.56 1010.98 1011.38 1011.77 1012.16 1012.56 1012.97 1013.38 1013.76 1014.11 1014.41 1014.66 1014.85 1015.00 1015.14 1015.27 1015.42 1015.59 1015.76 1015.94 1016.09 1016.22 1016.33
1004.98 1004.58 1004.14 1003.70 1003.29 1002.94 1002.67 1002.49 1002.41 1002.45 1002.61 1002.88 1003.26 1003.72 1004.24 1004.79 1005.35 1005.92 1006.47 1007.02 1007.55 1008.09 1008.61 1009.14 1009.64 1010.13 1010.59 1011.02 1011.43 1011.82 1012.21 1012.59 1012.96 1013.34 1013.70 1014.03 1014.33 1014.59 1014.81 1015.01 1015.19 1015.37 1015.55 1015.76 1015.97 1016.17 1016.37 1016.54 1016.68
1004.91 1004.57 1004.22 1003.89 1003.57 1003.28 1003.01 1002.79 1002.61 1002.52 1002.55 1002.69 1002.98 1003.39 1003.91 1004.50 1005.13 1005.77 1006.40 1007.00 1007.57 1008.11 1008.64 1009.15 1009.65 1010.14 1010.62 1011.07 1011.49 1011.88 1012.26 1012.61 1012.95 1013.28 1013.60 1013.91 1014.21 1014.49 1014.75 1014.99 1015.22 1015.44 1015.67 1015.91 1016.14 1016.38 1016.61 1016.81 1016.99
1004.78 1004.52 1004.29 1004.09 1003.88 1003.65 1003.39 1003.11 1002.84 1002.61 1002.49 1002.50 1002.69 1003.05 1003.55 1004.17 1004.86 1005.57 1006.25 1006.90 1007.50 1008.05 1008.58 1009.09 1009.60 1010.10 1010.60 1011.07 1011.51 1011.92 1012.28 1012.61 1012.92 1013.21 1013.49 1013.78 1014.07 1014.36 1014.65 1014.94 1015.22 1015.49 1015.75 1016.01 1016.27 1016.53 1016.78 1017.01 1017.22
1004.58 1004.45 1004.36 1004.30 1004.21 1004.05 1003.80 1003.46 1003.07 1002.70 1002.42 1002.30 1002.37 1002.66 1003.14 1003.78 1004.51 1005.27 1006.01 1006.69 1007.31 1007.88 1008.41 1008.92 1009.44 1009.97 1010.49 1011.00 1011.47 1011.90 1012.27 1012.58 1012.86 1013.11 1013.37 1013.63 1013.92 1014.23 1014.55 1014.88 1015.20 1015.51 1015.80 1016.08 1016.35 1016.61 1016.87 1017.12 1017.35
1004.36 1004.37 1004.45 1004.55 1004.58 1004.49 1004.23 1003.82 1003.31 1002.78 1002.33 1002.04 1001.99 1002.20 1002.65 1003.29 1004.05 1004.85 1005.63 1006.35 1007.00 1007.57 1008.11 1008.64 1009.17 1009.73 1010.29 1010.84 1011.36 1011.81 1012.20 1012.51 1012.77 1013.01 1013.24 1013.49 1013.78 1014.10 1014.45 1014.82 1015.17 1015.51 1015.82 1016.11 1016.37 1016.63 1016.89 1017.15 1017.40
1004.13 1004.31 1004.58 1004.84 1004.99 1004.95 1004.68 1004.18 1003.53 1002.82 1002.18 1001.73 1001.54 1001.66 1002.06 1002.69 1003.47 1004.31 1005.13 1005.88 1006.54 1007.14 1007.69 1008.23 1008.78 1009.37 1009.98 1010.58 1011.14 1011.64 1012.06 1012.39 1012.66 1012.88 1013.10 1013.35 1013.65 1013.98 1014.36 1014.76 1015.15 1015.51 1015.83 1016.12 1016.38 1016.62 1016.87 1017.12 1017.38
1003.93 1004.30 1004.76 1005.18 1005.43 1005.43 1005.12 1004.52 1003.71 1002.81 1001.98 1001.36 1001.02 1001.03 1001.38 1001.99 1002.78 1003.65 1004.51 1005.29 1005.99 1006.60 1007.16 1007.71 1008.29 1008.91 1009.55 1010.20 1010.82 1011.37 1011.83 1012.20 1012.48 1012.72 1012.95 1013.21 1013.51 1013.87 1014.28 1014.70 1015.12 1015.50 1015.84 1016.13 1016.37 1016.60 1016.83 1017.06 1017.32
1003.78 1004.34 1004.97 1005.53 1005.86 1005.87 1005.51 1004.80 1003.83 1002.75 1001.74 1000.94 1000.46 1000.37 1000.65 1001.24 1002.04 1002.93 1003.82 1004.63 1005.35 1005.98 1006.55 1007.11 1007.70 1008.34 1009.02 1009.72 1010.39 1010.99 1011.50 1011.91 1012.23 1012.50 1012.75 1013.02 1013.35 1013.73 1014.17 1014.62 1015.08 1015.49 1015.84 1016.14 1016.38 1016.59 1016.79 1017.01 1017.25
1003.68 1004.42 1005.20 1005.86 1006.25 1006.25 1005.83 1005.00 1003.89 1002.65 1001.47 1000.51 999.91 999.72 999.94 1000.50 1001.30 1002.20 1003.11 1003.94 1004.68 1005.31 1005.89 1006.45 1007.05 1007.70 1008.40 1009.12 1009.83 1010.49 1011.05 1011.51 1011.87 1012.18 1012.47 1012.77 1013.12 1013.54 1014.01 1014.50 1014.99 1015.44 1015.82 1016.13 1016.38 1016.58 1016.77 1016.96 1017.18
1003.63 1004.49 1005.38 1006.11 1006.52 1006.51 1006.03 1005.11 1003.89 1002.52 1001.21 1000.14 999.43 999.16 999.32 999.84 1000.62 1001.52 1002.43 1003.27 1004.01 1004.64 1005.21 1005.76 1006.35 1006.99 1007.69 1008.44 1009.17 1009.87 1010.48 1010.99 1011.41 1011.76 1012.09 1012.43 1012.82 1013.27 1013.77 1014.31 1014.84 1015.34 1015.76 1016.11 1016.38 1016.58 1016.76 1016.93 1017.11
1003.57 1004.52 1005.46 1006.21 1006.63 1006.60 1006.07 1005.11 1003.82 1002.38 1001.00 999.86 999.09 998.75 998.86 999.33 1000.07 1000.95 1001.84 1002.66 1003.38 1003.99 1004.54 1005.07 1005.63 1006.25 1006.94 1007.68 1008.44 1009.16 1009.81 1010.37 1010.84 1011.24 1011.62 1012.01 1012.44 1012.93 1013.47 1014.05 1014.63 1015.18 1015.66 1016.05 1016.35 1016.58 1016.75 1016.91 1017.06
1003.48 1004.45 1005.39 1006.13 1006.53 1006.47 1005.94 1004.97 1003.68 1002.24 1000.85 999.69 998.90 998.53 998.58 999.01 999.70 1000.52 1001.37 1002.15 1002.83 1003.41 1003.92 1004.42 1004.94 1005.53 1006.20 1006.92 1007.67 1008.41 1009.09 1009.69 1010.21 1010.67 1011.10 1011.53 1012.01 1012.54 1013.12 1013.74 1014.37 1014.97 1015.50 1015.95 1016.29 1016.55 1016.74 1016.89 1017.03
1003.33 1004.25 1005.13 1005.82 1006.18 1006.11 1005.60 1004.67 1003.45 1002.08 1000.76 999.65 998.87 998.49 998.52 998.89 999.51 1000.26 1001.04 1001.76 1002.39 1002.93 1003.40 1003.85 1004.33 1004.88 1005.51 1006.21 1006.95 1007.69 1008.39 1009.03 1009.60 1010.11 1010.59 1011.07 1011.59 1012.15 1012.77 1013.43 1014.10 1014.74 1015.32 1015.81 1016.21 1016.50 1016.72 1016.88 1017.00
1003.11 1003.90 1004.67 1005.26 1005.57 1005.50 1005.03 1004.20 1003.10 1001.87 1000.68 999.68 998.97 998.62 998.63 998.95 999.50 1000.18 1000.87 1001.53 1002.09 1002.58 1003.00 1003.41 1003.86 1004.37 1004.96 1005.63 1006.35 1007.08 1007.79 1008.45 1009.06 1009.62 1010.15 1010.68 1011.24 1011.84 1012.49 1013.17 1013.86 1014.53 1015.14 1015.67 1016.10 1016.43 1016.67 1016.85 1016.98
1002.82 1003.44 1004.04 1004.50 1004.73 1004.66 1004.25 1003.55 1002.62 1001.58 1000.58 999.73 999.13 998.84 998.85 999.14 999.63 1000.23 1000.85 1001.43 1001.94 1002.38 1002.77 1003.14 1003.55 1004.03 1004.58 1005.21 1005.90 1006.62 1007.34 1008.02 1008.66 1009.27 1009.85 1010.43 1011.02 1011.65 1012.32 1013.01 1013.70 1014.38 1014.99 1015.54 1015.98 1016.34 1016.60 1016.79 1016.93
Thickness
5853 5856 5855 5847 5823 5804 5808 5834 5847 5842 5843 5853 5854 5843 5826 5815 5803 5790 5818 5824 5816 5805 5798 5793 5789 5787 5785 5784 5782 5780 5778 5777 5775 5774 5773 5771 5769 5768 5767 5766 5764 5763 5761 5760 5759 5758 5757 5756 5756
5858 5862 5855 5838 5808 5793 5814 5841 5841 5843 5851 5857 5853 5842 5827 5819 5824 5819 5821 5821 5815 5806 5799 5793 5788 5786 5784 5782 5781 5779 5777 5775 5774 5772 5771 5770 5768 5767 5766 5764 5763 5762 5760 5759 5757 5757 5756 5755 5755
5857 5863 5845 5831 5814 5814 5825 5846 5847 5854 5860 5854 5843 5839 5827 5818 5824 5823 5823 5822 5815 5807 5798 5790 5787 5784 5782 5780 5779 5777 5775 5774 5772 5771 5769 5768 5767 5765 5764 5762 5761 5760 5759 5757 5756 5755 5755 5754 5754
5857 5856 5846 5832 5829 5847 5851 5854 5857 5851 5853 5854 5842 5825 5825 5832 5830 5827 5827 5823 5813 5805 5797 5789 5786 5783 5781 5779 5777 5775 5774 5772 5770 5769 5767 5766 5765 5764 5762 5761 5760 5759 5758 5756 5755 5754 5753 5753 5753
5858 5845 5830 5829 5845 5861 5867 5866 5862 5849 5845 5848 5839 5816 5813 5830 5836 5831 5827 5822 5813 5804 5795 5788 5784 5782 5779 5777 5775 5774 5772 5770 5769 5767 5766 5764 5763 5762 5761 5759 5758 5757 5756 5755 5754 5753 5752 5752 5752
5845 5843 5823 5825 5846 5862 5870 5870 5864 5852 5846 5845 5836 5818 5811 5829 5828 5827 5826 5821 5815 5804 5795 5786 5782 5780 5778 5775 5774 5772 5770 5769 5767 5766 5764 5763 5761 5760 5759 5758 5757 5756 5755 5754 5753 5752 5751 5751 5751
5837 5834 5829 5841 5851 5856 5866 5872 5861 5852 5844 5844 5843 5817 5812 5822 5827 5829 5825 5821 5814 5805 5794 5787 5782 5778 5776 5774 5772 5770 5769 5767 5766 5764 5763 5761 5760 5759 5758 5756 5755 5754 5753 5753 5752 5751 5751 5750 5750
5850 5837 5833 5848 5853 5855 5870 5871 5867 5856 5845 5857 5852 5821 5810 5821 5829 5828 5823 5818 5811 5804 5796 5789 5784 5779 5776 5773 5770 5768 5767 5765 5764 5763 5762 5760 5759 5758 5757 5755 5754 5753 5752 5752 5751 5751 5750 5750 5750
5854 5828 5827 5852 5860 5861 5872 5865 5867 5870 5858 5855 5854 5843 5833 5832 5830 5821 5814 5810 5805 5801 5797 5792 5786 5781 5778 5774 5770 5767 5765 5764 5763 5762 5760 5759 5759 5758 5756 5755 5753 5753 5752 5751 5751 5750 5750 5749 5749
5844 5824 5842 5872 5876 5872 5871 5865 5863 5857 5843 5839 5838 5838 5835 5830 5823 5814 5808 5803 5799 5796 5796 5794 5788 5784 5782 5778 5771 5768 5767 5764 5763 5762 5760 5760 5759 5758 5757 5754 5753 5752 5752 5751 5750 5750 5749 5749 5749
5844 5837 5857 5872 5879 5876 5870 5867 5869 5853 5834 5834 5830 5827 5827 5824 5819 5812 5808 5805 5800 5798 5797 5794 5790 5787 5784 5779 5773 5772 5769 5765 5764 5763 5761 5760 5759 5758 5756 5754 5752 5752 5752 5752 5750 5750 5750 5750 5751
5843 5851 5861 5867 5875 5869 5867 5866 5863 5855 5848 5849 5843 5837 5829 5822 5817 5813 5808 5805 5801 5798 5796 5794 5791 5787 5784 5781 5777 5773 5771 5767 5765 5764 5763 5761 5760 5759 5758 5756 5754 5754 5754 5753 5753 5752 5752 5752 5752
5842 5848 5860 5867 5868 5866 5865 5861 5859 5858 5861 5855 5847 5838 5830 5824 5819 5816 5813 5807 5802 5797 5795 5792 5789 5785 5783 5780 5778 5776 5773 5770 5767 5765 5763 5762 5761 5759 5758 5757 5756 5756 5756 5755 5754 5754 5752 5752 5752
5847 5850 5856 5862 5862 5862 5854 5856 5856 5856 5862 5851 5842 5835 5831 5826 5821 5816 5811 5806 5800 5797 5794 5791 5788 5784 5781 5778 5776 5776 5774 5770 5768 5766 5764 5763 5761 5759 5758 5756 5756 5756 5756 5756 5754 5754 5752 5751 5751
5848 5839 5843 5853 5856 5858 5853 5840 5848 5860 5862 5848 5841 5836 5831 5828 5824 5818 5813 5807 5802 5798 5794 5790 5787 5783 5779 5777 5775 5775 5773 5771 5769 5766 5764 5762 5761 5759 5758 5757 5756 5756 5756 5755 5755 5754 5753 5751 5750
5835 5824 5819 5842 5853 5856 5841 5821 5850 5863 5856 5845 5841 5837 5831 5827 5825 5821 5816 5810 5805 5799 5794 5790 5789 5783 5778 5776 5774 5775 5774 5771 5768 5765 5763 5761 5760 5759 5758 5757 5756 5756 5756 5755 5754 5753 5751 5750 5749
5814 5808 5815 5834 5855 5854 5839 5826 5851 5863 5854 5844 5842 5837 5831 5825 5824 5822 5818 5812 5807 5801 5794 5789 5788 5782 5778 5775 5773 5773 5772 5770 5768 5765 5763 5761 5759 5758 5757 5757 5756 5756 5756 5755 5754 5752 5750 5747 5747
5806 5813 5820 5829 5851 5849 5836 5833 5849 5860 5853 5845 5842 5838 5831 5825 5823 5823 5819 5814 5808 5802 5795 5790 5786 5781 5777 5774 5771 5770 5769 5768 5767 5765 5763 5760 5759 5758 5757 5756 5755 5755 5755 5753 5752 5750 5749 5748 5747
5822 5824 5826 5841 5859 5845 5834 5834 5845 5855 5851 5846 5841 5835 5830 5826 5826 5824 5819 5813 5807 5801 5795 5790 5785 5780 5775 5771 5768 5766 5764 5765 5765 5764 5762 5760 5759 5758 5757 5757 5755 5754 5753 5752 5752 5749 5747 5746 5747
5814 5815 5823 5841 5853 5840 5829 5830 5844 5852 5850 5848 5842 5835 5831 5827 5823 5820 5816 5811 5806 5800 5795 5790 5785 5780 5776 5773 5770 5768 5766 5764 5764 5763 5761 5760 5758 5757 5757 5755 5754 5753 5752 5751 5751 5749 5746 5746 5747
5807 5809 5818 5825 5839 5837 5822 5814 5829 5844 5850 5850 5848 5844 5840 5832 5824 5819 5814 5810 5806 5800 5796 5792 5786 5782 5778 5774 5770 5768 5765 5762 5761 5759 5758 5759 5758 5756 5757 5755 5754 5753 5752 5749 5749 5748 5745 5742 5744
5796 5818 5823 5822 5817 5809 5811 5791 5816 5830 5835 5839 5842 5843 5840 5836 5828 5821 5815 5809 5806 5802 5798 5793 5787 5782 5778 5775 5770 5765 5760 5757 5759 5759 5758 5758 5757 5756 5756 5755 5754 5752 5752 5750 5749 5749 5748 5744 5741
5805 5822 5819 5816 5811 5804 5810 5797 5810 5829 5819 5826 5837 5841 5840 5837 5831 5824 5818 5812 5808 5804 5798 5793 5788 5782 5778 5775 5771 5767 5764 5762 5762 5761 5758 5757 5757 5756 5756 5755 5754 5752 5751 5750 5749 5749 5747 5746 5743
5812 5810 5808 5807 5801 5779 5797 5794 5799 5821 5820 5825 5832 5841 5840 5839 5835 5828 5822 5815 5808 5804 5799 5793 5787 5782 5778 5775 5772 5768 5765 5763 5760 5758 5756 5755 5755 5756 5756 5755 5753 5752 5751 5750 5749 5748 5747 5746 5745
5799 5783 5764 5760 5763 5771 5804 5798 5806 5833 5839 5837 5836 5840 5843 5842 5836 5827 5820 5812 5807 5802 5798 5793 5787 5781 5778 5775 5772 5769 5767 5764 5761 5759 5756 5755 5755 5755 5755 5755 5753 5752 5751 5750 5749 5748 5747 5746 5744
5787 5784 5762 5751 5759 5776 5796 5792 5818 5843 5848 5849 5847 5844 5843 5840 5834 5827 5821 5814 5808 5803 5797 5792 5786 5781 5778 5775 5772 5770 5767 5765 5763 5761 5759 5758 5758 5758 5757 5755 5753 5752 5751 5750 5749 5748 5746 5745 5744
5782 5783 5796 5782 5780 5776 5790 5805 5823 5841 5841 5843 5843 5841 5838 5836 5832 5827 5822 5815 5809 5803 5797 5793 5787 5782 5778 5775 5773 5770 5768 5765 5763 5762 5760 5759 5759 5759 5758 5756 5753 5751 5750 5749 5748 5746 5745 5745 5743
5797 5792 5783 5774 5758 5758 5779 5792 5800 5814 5822 5832 5834 5834 5834 5833 5830 5825 5821 5816 5810 5805 5799 5793 5788 5783 5779 5776 5773 5770 5768 5766 5764 5763 5760 5760 5759 5759 5756 5754 5752 5750 5749 5748 5746 5745 5744 5743 5742
5781 5783 5783 5780 5779 5765 5761 5782 5823 5819 5826 5829 5832 5833 5832 5830 5828 5823 5818 5815 5810 5804 5798 5791 5787 5782 5778 5776 5773 5771 5768 5766 5764 5762 5761 5760 5758 5756 5754 5753 5751 5749 5747 5747 5745 5744 5743 5741 5741
5789 5786 5783 5766 5767 5778 5770 5779 5825 5828 5830 5830 5831 5832 5833 5831 5828 5824 5819 5814 5808 5802 5796 5790 5786 5781 5778 5776 5773 5770 5767 5766 5763 5762 5761 5759 5757 5755 5754 5752 5750 5748 5747 5746 5744 5742 5742 5740 5739